[Iaude] MPEC N08: 2024 MU1 [a=2.05,e=0.51,i=3.7,H=23.5]
    mpec at cfa.harvard.edu 
    mpec at cfa.harvard.edu
       
    Mon Jul  1 21:58:03 EDT 2024
    
    
  
M.P.E.C. 2024-N08                                  Issued 2024 July 2, 01:56 UT
     The Minor Planet Electronic Circulars contain information on unusual
         minor planets, routine data on comets and natural satellites,
         and occasional editorial announcements.  They are published
    on behalf of Division F of the International Astronomical Union by the
          Minor Planet Center, Smithsonian Astrophysical Observatory,
                          Cambridge, MA 02138, U.S.A.
			  
             Prepared using the Tamkin Foundation Computer Network
                              MPC at CFA.HARVARD.EDU
            URL https://www.minorplanetcenter.net/    ISSN 1523-6714
                                    2024 MU1                                    
Observations:
     K24M01U* C2024 06 30.31848115 20 59.505-01 05 42.12         21.21wXEN008F51
     K24M01U  C2024 06 30.34233015 21 10.507-01 07 23.66         21.39wXEN008F51
     K24M01U  C2024 06 30.35423415 21 16.006-01 08 14.05         21.18wXEN008F51
     K24M01U  C2024 06 30.46611515 22 08.228-01 16 08.85         21.27GVEN008F51
     K24M01U  C2024 06 30.46675715 22 08.533-01 16 12.02         21.31GVEN008F51
     K24M01U KC2024 07 01.13501215 27 30.17 -02 03 11.3          21.4 GVEN008H21
     K24M01U KC2024 07 01.13643415 27 30.81 -02 03 17.1          21.4 GVEN008H21
     K24M01U KC2024 07 01.13927815 27 32.11 -02 03 28.9          21.8 GVEN008H21
     K24M01U KC2024 07 01.15680515 27 40.08 -02 04 40.6          21.4 GVEN008H21
     K24M01U |C2024 07 02.02268015 34 25.600-03 02 38.40         21.5 GVEN008807
     K24M01U |C2024 07 02.02819015 34 28.030-03 02 59.40         21.5 GVEN008807
     K24M01U |C2024 07 02.03369015 34 30.420-03 03 21.80         21.3 GVEN008807
Observer details:
807 Cerro Tololo Observatory, La Serena.  Observers T. Linder, R. Holmes.
    0.61-m f/6.8 Ritchey-Chretien + CCD.
F51 Pan-STARRS 1, Haleakala.  Observers J. Herman, T. Lowe, P. Minguez, A.
    Schultz, I. Smith.  Measurers K. Chambers, T. de Boer, J. Fairlamb, H.
    Gao, M. Huber, C.-C. Lin, E. Magnier, Y. Ramanjooloo, R. Wainscoat, R.
    Weryk.  1.8-m Ritchey-Chretien + CCD.
H21 Astronomical Research Observatory, Westfield.  Observer R. Holmes.
    Measurers T. Linder, R. Holmes, L. Horn.  0.81-m f/4.0 astrograph + CCD.
Orbital elements:
2024 MU1                                                 Earth MOID = 0.0615 AU
Epoch 2024 Mar. 31.0 TT = JDT 2460400.5                 MPC                     
M 342.92757              (2000.0)            P               Q                  
n   0.33608694     Peri.   95.50046     -0.67282573     +0.73826325             
a   2.0488097      Node   132.09571     -0.70165262     -0.61637775             
e   0.5071936      Incl.    3.68378     -0.23449764     -0.27394495             
P   2.93           H   23.56          G   0.15           U   9                  
Residuals in seconds of arc
240630 F51  0.5+  0.1-    240630 F51  0.2+  0.4-    240701 H21  0.1-  0.8+
240630 F51  0.0   0.1-    240701 H21  0.1+  0.3-    240702 807  0.2+  0.6-
240630 F51  0.2-  0.2+    240701 H21  0.0   0.2-    240702 807  0.2+  0.6+
240630 F51  0.2+  0.0     240701 H21  0.1+  0.2-    240702 807  0.4-  0.3+
Ephemeris:
2024 MU1                 a,e,i = 2.05, 0.51, 4                   q = 1.0097
Date    TT    R. A. (2000) Decl.     Delta      r    Elong.  Phase     V
2024 06 02    11 13 00.2 +26 50 58   0.1800  1.0205    86.9    82.9    22.8
...
2024 06 17    13 19 06.5 +15 41 11   0.1444  1.0619   104.7    67.7    21.9
...
2024 06 25    14 35 05.4 +05 36 19   0.1466  1.0948   118.9    54.4    21.6
...
2024 07 01    15 26 26.2 -01 53 10   0.1606  1.1236   128.4    45.1    21.6
2024 07 02    15 34 13.9 -03 01 28   0.1639  1.1287   129.8    43.8    21.6
2024 07 03    15 41 47.5 -04 07 18   0.1675  1.1339   131.1    42.5    21.6
...
2024 07 09    16 22 14.8 -09 47 37   0.1942  1.1665   137.2    36.3    21.8
...
2024 07 17    17 04 31.5 -15 05 21   0.2410  1.2137   141.3    31.6    22.2
...
2024 08 01    17 59 24.4 -20 23 16   0.3559  1.3104   140.9    29.3    23.2
A. U. Tomatic                (C) Copyright 2024 MPC           M.P.E.C. 2024-N08
    
    
More information about the Iaude
mailing list